SL-14 DEB, 45315

Orbit data source: Space-Track

SL-14 DEB, 45315 is space debris in LEO originally from a launch on Thu, 15 Aug 1991 UTC launched from the Plesetsk Missile And Space Complex (PKMTR). Debris objects in space refer to the collection of defunct objects orbiting the Earth. Examples of debris include non-operational satellites, rocket bodies, and fragments generated from explosions, collisions, or faulty payload assembly.

Loading next visibility...
Identifier
45315, 1991-056BD
Orbit
LEO
Country
Flag of CISCIS
Related business
Manufacturer
Unknown
Mission
Spacecraft
Bus & Motor
Unknown
Mass
Unknown
Launch date (UTC)
1991-08-15 (34 years ago)
Launch vehicle
Unknown
Launch site
Plesetsk Missile And Space Complex (PKMTR)
Object type
Payload
Rocket body
Debris
Shape & HBR
Unknown shape, 0.1 m
Radar Cross Section
Small (<0.1 m²)

Expand to show TLE details & history
Last TLE update: 7 hours ago

TLE from 7 hours ago
0 SL-14 DEB
1 45315U 91056BD  25352.19310760  .00000219  00000-0  54960-3 0  9992
2 45315  82.5601 274.5132 0028540 293.2912  66.5206 13.15443252278814
Epoch: 2025-12-18T04:38Z
TLE epoch observation values (Epoch: 2025-12-18T04:38:04.496Z)
Latitude
-0.00004°
Longitude
117.94233°
Altitude
1,196.412 km
Speed
7.26 km/s
True Right ascension
18h 18m 03s
True Declination
0° 00' 00"
Sunlit
Object was in daylight at epoch
Visualization orbit readout
Latitude
Unknown
Longitude
Unknown
Altitude
Unknown
Speed
Unknown
Apparent Right ascension
Unknown
Apparent Declination
Unknown
Sunlit
N/A
Visualization observer readout
Local Sidereal Time
10:56:57
Azimuth
Unknown
Elevation
Unknown
Doppler factor
Unknown
Orbital elements
Apogee altitude
1,221.048 km
Perigee altitude
1,177.795 km
Semi-major axis
7,577.559 km
Eccentricity
0.00285
Inclination
82.5601°
RAAN
274.5132°
Arg. of periapsis
293.2912°
True anomaly
66.82099°
Mean anomaly
66.5206°
Eccentric anomaly
66.67075°
Mean motion
3.2904 °/min
Orbital period
109.41 mins
BSTAR
0.0005496
Loading maneuver chart data...
Computing Atmospheric mass density...
Loading historical data...
Loading historical data...
Loading historical data...
Loading historical data...
Loading historical data...
Loading historical data...
Loading historical data...

Documentation

Showing up to 5 results
|